CW5039 Weather Reports


Display with metric or nautical units.
time (UTC)temp
F
wind
direction
speed
MPH
gust
MPH
rain 1hr
in
rain 24hr
in
rain mn
in
humidity
%
barometer
mb
20260904102904 52 290 3.0 6.0 0.00 0.07 0.07 86 1014.6
20260904100905 51 276 1.0 3.0 0.00 0.07 0.07 86 1014.7
20260904095905 52 276 1.0 5.0 0.00 0.07 0.07 84 1014.5
20260904094405 53 258 3.0 5.0 0.00 0.07 0.07 83 1014.3
20260904092905 54 240 5.0 6.0 0.00 0.07 0.07 83 1014.1
20260904092405 54 238 5.0 9.0 0.00 0.07 0.07 83 1014.1
20260904090905 55 239 8.0 13.0 0.00 0.07 0.07 82 1013.8
20260904085404 54 239 10.0 14.0 0.00 0.08 0.07 83 1013.5
20260904083905 55 247 12.0 17.0 0.00 0.08 0.07 82 1013.3
20260904081905 56 258 12.0 15.0 0.00 0.08 0.07 82 1012.8
20260904080405 56 246 14.0 20.0 0.00 0.08 0.07 82 1012.6
20260904075905 56 248 16.0 21.0 0.00 0.08 0.07 82 1012.5
20260904073905 56 245 17.0 20.0 0.00 0.08 0.07 82 1012.3
20260904073404 57 246 16.0 20.0 0.00 0.08 0.07 82 1012.4
20260904072404 57 242 14.0 20.0 0.00 0.08 0.07 85 1012.2
20260904071904 57 241 15.0 20.0 0.00 0.08 0.07 85 1012.0
20260904070405 57 248 13.0 20.0 0.00 0.09 0.07 86 1011.4
20260904065905 57 255 11.0 15.0 0.00 0.09 0.07 86 1011.3
20260904065405 58 262 9.0 15.0 0.00 0.09 0.07 85 1011.2
20260904064904 58 257 14.0 17.0 0.00 0.09 0.07 85 1011.2
20260904063405 58 253 14.0 20.0 0.00 0.09 0.07 84 1011.3
20260904062904 58 255 17.0 25.0 0.00 0.09 0.07 84 1011.2
20260904060405 59 254 15.0 21.0 0.00 0.09 0.07 86 1010.8
20260904055404 59 265 16.0 21.0 0.00 0.09 0.07 86 1010.5
20260904054904 60 266 18.0 24.0 0.00 0.09 0.07 87 1010.6
20260904053404 60 264 18.0 23.0 0.00 0.09 0.07 86 1010.4
20260904052905 60 263 20.0 23.0 0.00 0.09 0.07 86 1010.3
20260904050904 61 257 17.0 25.0 0.00 0.09 0.07 86 1010.3
20260904045404 61 263 16.0 23.0 0.01 0.09 0.07 87 1010.2
20260904044405 62 270 21.0 26.0 0.01 0.09 0.07 87 1010.2
20260904043404 62 274 18.0 24.0 0.02 0.09 0.07 87 1010.3
20260904041904 62 277 20.0 28.0 0.02 0.10 0.07 88 1010.2
20260904041405 62 287 19.0 26.0 0.02 0.10 0.07 90 1010.3
20260904040904 62 294 18.0 24.0 0.02 0.10 0.07 89 1010.2
20260904035905 62 292 19.0 25.0 0.02 0.09 0.06 89 1010.0
20260904035404 62 300 22.0 33.0 0.02 0.09 0.06 90 1009.8
20260904034404 62 305 21.0 28.0 0.02 0.09 0.06 90 1009.8
20260904031905 62 310 23.0 26.0 0.01 0.08 0.05 88 1009.3
20260904030904 62 308 26.0 33.0 0.01 0.08 0.05 87 1009.4
20260904025904 62 307 25.0 35.0 0.00 0.07 0.04 86 1009.6
20260904024905 63 302 20.0 35.0 0.00 0.07 0.04 86 1009.8
20260904023405 62 308 20.0 25.0 0.00 0.07 0.04 87 1009.9
20260904021905 62 299 18.0 25.0 0.00 0.07 0.04 87 1010.1
20260904015404 62 303 20.0 29.0 0.01 0.07 0.04 87 1010.4
20260904014405 62 300 22.0 26.0 0.01 0.07 0.04 88 1010.4
20260904013404 61 294 21.0 28.0 0.02 0.07 0.04 88 1010.8
20260904011905 61 311 20.0 26.0 0.04 0.07 0.04 89 1011.0
20260904005904 61 314 14.0 20.0 0.03 0.06 0.03 88 1011.4
20260904004404 61 317 17.0 21.0 0.03 0.06 0.03 88 1011.8
20260904003905 60 311 17.0 22.0 0.03 0.06 0.03 88 1012.1
20260904002905 60 303 16.0 21.0 0.02 0.05 0.02 87 1012.4
20260904002405 60 295 18.0 28.0 0.01 0.04 0.01 86 1012.7
20260904001905 61 304 22.0 29.0 0.00 0.03 0.00 85 1012.7
20260904001405 61 306 18.0 22.0 0.00 0.03 0.00 85 1012.6
20260904000404 61 305 21.0 29.0 0.00 0.03 0.00 84 1012.7
20260903235404 61 302 23.0 30.0 0.00 0.03 0.00 84 1012.8
20260903233904 61 297 26.0 33.0 0.00 0.03 0.00 83 1012.8
20260903233404 61 304 24.0 35.0 0.00 0.03 0.00 83 1012.8
20260903232404 62 303 21.0 29.0 0.00 0.03 0.00 82 1012.9
20260903231905 62 302 22.0 33.0 0.00 0.03 0.00 81 1013.0
20260903231404 62 310 24.0 30.0 0.00 0.03 0.00 81 1013.0
20260903230904 62 299 25.0 32.0 0.00 0.03 0.00 80 1013.1
20260903230404 62 297 23.0 30.0 0.00 0.03 0.00 82 1013.0
20260903224905 61 306 18.0 23.0 0.00 0.03 0.00 82 1013.2
20260903223904 62 308 19.0 24.0 0.00 0.03 0.00 81 1013.4
20260903223404 63 298 17.0 25.0 0.00 0.03 0.00 81 1013.3
20260903222404 62 310 19.0 29.0 0.00 0.03 0.00 79 1013.3
20260903221404 62 307 18.0 30.0 0.00 0.03 0.00 80 1013.5
20260903220905 62 313 22.0 28.0 0.00 0.03 0.00 80 1013.6
20260903220404 62 305 22.0 30.0 0.00 0.03 0.00 79 1013.7
20260903215904 62 311 24.0 28.0 0.00 0.03 0.00 79 1013.7
20260903214404 63 311 18.0 26.0 0.00 0.03 0.00 80 1013.6
20260903213904 62 315 22.0 28.0 0.00 0.03 0.00 80 1013.6
20260903213404 62 307 17.0 23.0 0.00 0.03 0.00 81 1013.7
20260903211904 62 315 19.0 23.0 0.00 0.03 0.00 81 1013.8
20260903210404 62 317 17.0 23.0 0.00 0.03 0.00 81 1014.0
20260903204405 60 320 15.0 20.0 0.00 0.03 0.00 82 1014.6
20260903203904 60 317 14.0 20.0 0.00 0.03 0.00 82 1014.7
20260903203404 60 310 13.0 17.0 0.00 0.03 0.00 82 1014.8
20260903202904 61 299 12.0 17.0 0.00 0.03 0.00 82 1014.7
20260903202404 61 323 13.0 16.0 0.00 0.03 0.00 83 1014.8
20260903201904 61 312 12.0 15.0 0.00 0.03 0.00 84 1014.9
20260903201404 60 326 13.0 16.0 0.00 0.03 0.00 84 1014.8
20260903200905 60 332 14.0 18.0 0.00 0.03 0.00 83 1014.8
20260903200405 60 316 15.0 20.0 0.00 0.03 0.00 83 1014.8
20260903193905 58 317 13.0 20.0 0.00 0.03 0.00 85 1014.7
20260903191906 57 324 12.0 15.0 0.00 0.03 0.00 86 1014.8
20260903191406 57 318 14.0 18.0 0.00 0.03 0.00 86 1014.9
20260903190405 57 326 13.0 18.0 0.00 0.03 0.00 87 1014.8
20260903185905 57 323 12.0 17.0 0.00 0.03 0.00 86 1014.8
20260903185406 57 311 14.0 20.0 0.00 0.03 0.00 87 1014.9
20260903184905 57 314 14.0 18.0 0.00 0.03 0.00 87 1014.9
20260903182905 56 305 13.0 21.0 0.00 0.03 0.00 87 1015.1
20260903181405 57 302 12.0 16.0 0.00 0.03 0.00 87 1015.0
20260903180905 57 307 14.0 18.0 0.00 0.03 0.00 88 1015.0
20260903175405 57 302 14.0 18.0 0.00 0.03 0.00 88 1015.0
20260903173905 57 299 14.0 20.0 0.00 0.03 0.00 87 1015.0
20260903173405 57 304 13.0 17.0 0.00 0.03 0.00 87 1015.0
20260903172405 57 295 12.0 15.0 0.00 0.03 0.00 87 1015.1
20260903171905 57 293 14.0 20.0 0.00 0.03 0.00 87 1015.2
20260903165906 56 295 15.0 20.0 0.00 0.03 0.00 88 1015.3
20260903165405 56 304 12.0 15.0 0.00 0.03 0.00 87 1015.2
20260903164405 56 308 14.0 20.0 0.00 0.03 0.00 88 1015.2
20260903162405 57 301 14.0 20.0 0.00 0.03 0.00 88 1015.1
20260903161405 57 297 12.0 17.0 0.00 0.03 0.00 88 1015.2
20260903160906 57 306 10.0 14.0 0.00 0.03 0.00 88 1015.3
20260903160405 57 294 13.0 18.0 0.00 0.03 0.00 89 1015.4
20260903155905 57 305 11.0 17.0 0.00 0.03 0.00 89 1015.4
20260903155405 57 309 11.0 16.0 0.00 0.03 0.00 89 1015.5
20260903154905 57 301 12.0 14.0 0.00 0.03 0.00 89 1015.5
20260903154404 57 311 12.0 15.0 0.00 0.03 0.00 89 1015.5
20260903153905 57 308 10.0 13.0 0.00 0.03 0.00 89 1015.4
20260903152905 57 308 11.0 13.0 0.00 0.03 0.00 89 1015.4
20260903151405 58 313 12.0 13.0 0.00 0.03 0.00 89 1015.5
20260903150406 58 309 12.0 15.0 0.00 0.03 0.00 89 1015.6
20260903144905 58 310 13.0 17.0 0.00 0.03 0.00 89 1015.7
20260903144405 58 322 12.0 16.0 0.00 0.03 0.00 89 1015.7
20260903143405 58 310 13.0 17.0 0.00 0.03 0.00 90 1015.9
20260903142405 58 315 12.0 16.0 0.00 0.03 0.00 90 1016.0
20260903141905 58 312 12.0 16.0 0.00 0.03 0.00 90 1016.1
20260903141405 58 312 14.0 18.0 0.00 0.03 0.00 90 1016.1
20260903140905 58 305 12.0 14.0 0.00 0.03 0.00 89 1016.2
20260903135905 58 305 14.0 18.0 0.00 0.03 0.00 89 1016.1
20260903135405 58 304 12.0 15.0 0.00 0.03 0.00 89 1016.2
20260903134405 59 303 10.0 15.0 0.00 0.03 0.00 89 1016.3
20260903133905 59 302 13.0 20.0 0.00 0.03 0.00 89 1016.3
20260903133406 59 308 14.0 22.0 0.00 0.03 0.00 89 1016.3
20260903131905 59 291 15.0 20.0 0.00 0.03 0.00 89 1016.3
20260903131405 59 300 17.0 22.0 0.00 0.03 0.00 89 1016.2
20260903124905 59 299 12.0 16.0 0.00 0.03 0.00 90 1016.3
20260903124405 59 302 12.0 16.0 0.00 0.03 0.00 89 1016.3
20260903121904 59 287 13.0 17.0 0.00 0.03 0.00 90 1016.1
20260903121406 59 294 12.0 15.0 0.00 0.03 0.00 90 1016.2
20260903120909 59 290 12.0 14.0 0.00 0.03 0.00 89 1016.2
20260903115405 59 296 13.0 17.0 0.00 0.03 0.03 90 1016.3
20260903114905 59 291 13.0 18.0 0.00 0.03 0.03 90 1016.3
20260903113905 59 289 10.0 15.0 0.00 0.03 0.03 91 1016.4
20260903112905 59 298 12.0 16.0 0.00 0.03 0.03 91 1016.5
20260903112405 59 296 10.0 16.0 0.00 0.03 0.03 91 1016.5
20260903110905 59 298 12.0 16.0 0.00 0.03 0.03 92 1016.6
20260903110404 59 303 12.0 15.0 0.00 0.03 0.03 91 1016.6
20260903105905 59 295 10.0 16.0 0.00 0.03 0.03 91 1016.7
20260903104905 58 300 10.0 12.0 0.00 0.03 0.03 91 1016.7